Zurück zum Katalog

STARLINK-32035

AktivKommunikationVLEO
NORAD 60107·PAYLOAD·🇺🇸 United States

Gestartet Jun 23, 2024 von Cape Canaveral Space Force Station

Loading…

Nächste Überflüge (nächste 24 Stunden)

TLE

AktuellSource: CelesTrak SupGP

Epoche: Sep 14, 2026, 22:28 UTC

1 60107C 24117S   26257.93659722  .00028171  00000+0  83217-3 0  2573
2 60107  53.1578 235.7074 0001426  94.1101 301.7393 15.34381786    15

Verfolge STARLINK-32035 in Echtzeit mit AllMySat

Download on the App Store